Погода в Первомайском

Россия / Свердловская область     56°43′42″N   63°00′49″E
темп.,
°C
ветер,
м/с
пор.,
м/с
влажн.,
%
обл.,
%
осадки,
мм/ч
давл.,
гПа
погр.,
м
5 августа, чт
чт523:00+18вюв499221 2.5 1012151
02:00+19ю5118517 0.5 1010163
05:00+18ю349022 0.5 101069
08:00+22ю22775 0.3 1009175
11:00+28ю235395 0.3 1009612
14:00+32ююз223866 0.0 10081387
17:00+32ююз223658 0.0 10071575
20:00+20зсз91381100 3.0 1006208
6 августа, пт
пт623:00+18зюз81590100 9.6 1008336
02:00+18ююз369591 1.0 1007170
05:00+18зсз359785 1.1 1006157
08:00+17зсз569499 0.9 1007390
11:00+19сз4584100 0.9 1007612
14:00+20сз5678100 0.0 1008919
17:00+18сз6988100 0.2 1008533
20:00+17сз51189100 0.3 1009570
7 августа, сб
сб723:00+17ссз51194100 0.6 1009465
02:00+16ссз51194100 0.1 1009459
05:00+15сз61189100 0.1 1010433
08:00+16сз6118097 0.0 1010552
11:00+21сз675670 0.0 10101215
14:00+22ссз6751100 0.0 10101630
17:00+22ссз675299 0.0 10101761
20:00+19ссз5106595 0.0 1010601
8 августа, вс
вс823:00+16сз61173100 0.1 1011497
02:00+15сз71278100 0.0 1011647
05:00+13сз71387100 0.3 1011488
08:00+14ссз7128091 0.1 1012565
11:00+15ссз7127798 0.1 1012583
14:00+23с686148 0.0 10121199
17:00+23ссз686174 0.0 10131213
20:00+21ссз6107039 0.0 1014511
9 августа, пн
пн923:00+16ссз511900 0.0 1015372
02:00+14сз4109819 0.0 1015281
05:00+14сз499846 0.0 1016274
08:00+17ссз578175 0.0 1016462
11:00+19ссз557298 0.0 1017837
14:00+21ссз4564100 0.0 10171078
17:00+22ссз456094 0.0 10171269
20:00+19с2369100 0.0 101743